Location: Castillon
(43.0896°N, 0.2156°E)
Time: 20:02:00
(UTC+00:00)

Cosmos 1452 Rocket - Pass Details

Date: 16 June 2021
Orbit: 768 x 774 km, 74.1° (Epoch: 01 August)

Event Time Altitude Azimuth Distance (km) Brightness Sun altitude
Rises 20:52:56 0° 193° (SSW) 3,235 6.4 -10.8°
Reaches altitude 10° 20:55:18 10° 192° (SSW) 2,312 5.6 -11.1°
Maximum altitude 21:00:32 75° 108° (ESE) 804 3.5 -11.8°
Drops below altitude 10° 21:05:49 10° 24° (NNE) 2,326 6.3 -12.4°
Sets 21:08:12 0° 22° (NNE) 3,257 7.2 -12.7°
